Temp
84 84 83 84 84 84 84 84 84 84 84 84 83 84 84 84 84 84 84 84 84 85 85 85 85 85 84 84 84 84 84 84 84 83 83 83 83 82 83 83 84 85 83
88 86 83 84 84 84 84 84 84 84 84 84 83 84 84 84 84 84 84 84 84 84 84 84 84 84 84 84 84 84 84 84 84 84 84 84 84 84 83 79 79 83 83
90 86 85 83 84 84 84 84 84 84 84 84 84 84 84 84 84 84 84 84 84 84 84 84 84 84 84 84 84 84 84 83 84 84 84 85 84 84 82 78 79 83 83
90 88 85 83 83 84 84 84 84 84 84 84 84 84 83 83 83 84 84 84 84 85 84 84 84 84 84 84 84 83 83 83 83 78 73 78 88 84 82 82 83 83 83
88 88 84 83 83 84 84 84 84 84 84 84 84 84 83 84 84 84 84 84 85 85 85 84 84 84 84 84 84 84 84 83 83 79 77 74 85 84 84 83 83 83 83
89 89 84 83 84 84 83 84 84 84 84 84 84 83 83 84 84 84 84 85 85 85 84 85 84 84 84 84 84 84 84 84 85 81 79 77 84 83 84 84 85 84 83
90 88 86 83 84 84 84 84 84 84 84 84 84 84 84 84 85 85 84 84 84 84 84 84 85 85 84 84 84 84 84 84 84 81 75 76 83 82 84 84 83 83 82
92 90 86 84 84 84 84 83 84 84 84 84 84 84 84 84 85 84 84 84 84 84 84 84 85 85 85 85 85 84 84 85 84 82 81 81 81 83 84 83 82 83 82
95 90 88 87 85 84 84 84 84 84 84 84 84 84 84 84 84 84 84 84 84 84 84 84 84 85 85 85 85 84 84 85 79 75 85 85 81 83 84 83 83 83 82
96 94 90 87 87 86 85 84 84 84 84 84 84 84 84 84 84 84 84 84 84 84 84 85 85 85 84 84 84 84 84 84 82 82 81 85 82 83 84 83 83 82 82
96 95 93 91 88 87 87 85 84 84 84 84 85 85 84 86 85 85 86 84 85 85 85 85 85 84 84 84 83 83 84 84 84 77 80 81 82 83 83 83 82 82 82
96 97 95 93 92 90 93 83 86 87 87 85 85 83 85 88 87 91 87 85 85 85 85 85 84 84 84 80 73 77 76 75 75 82 86 82 82 83 83 82 82 82 82
97 98 98 93 93 94 89 87 89 89 88 87 85 83 86 88 88 91 86 87 84 84 87 86 86 85 87 74 73 71 74 72 73 73 84 82 82 83 83 82 82 82 82
96 97 100 96 93 93 91 91 92 91 89 89 88 86 86 88 88 88 86 87 87 87 89 88 89 90 91 79 73 71 75 73 73 71 74 82 82 82 83 82 82 82 82
95 96 97 94 91 89 89 89 88 87 90 91 88 87 88 87 87 88 87 89 89 89 89 88 88 88 87 83 82 77 75 75 75 76 73 81 82 82 83 83 82 82 82
95 96 98 93 91 94 91 90 90 87 91 91 89 87 87 87 86 88 87 86 87 90 89 86 85 84 86 81 78 81 81 78 78 76 77 77 82 81 82 83 82 82 82
97 97 95 92 92 90 90 90 89 91 93 89 90 86 86 87 88 87 87 86 89 88 89 86 85 86 86 86 80 84 80 81 84 80 81 81 82 82 82 82 82 82 82
96 93 93 96 92 89 88 87 89 90 91 90 90 87 87 87 88 86 87 87 88 89 88 87 86 83 78 81 84 79 81 80 82 86 90 88 85 86 80 82 81 82 82
96 91 91 91 90 88 86 87 87 87 89 92 92 91 86 88 89 87 89 87 88 87 86 86 81 81 82 82 86 77 75 78 82 91 90 89 88 87 81 82 77 80 82
96 92 90 90 88 84 85 85 87 89 90 92 91 93 88 90 88 85 87 88 88 87 81 80 81 82 81 79 86 85 82 79 76 79 88 92 87 85 82 78 72 74 81
95 90 88 86 85 84 84 83 84 86 88 90 92 90 85 90 89 86 86 87 87 76 72 78 80 81 79 78 77 78 80 76 73 72 83 85 84 83 79 75 76 75 77
94 89 86 86 85 85 85 83 85 86 89 90 91 89 91 90 89 86 85 85 73 72 71 73 77 79 79 76 74 75 71 74 70 73 78 83 84 83 77 73 72 72 71
93 89 86 85 84 84 84 85 84 87 87 85 87 87 89 88 88 88 84 76 77 75 72 76 78 77 75 74 73 71 67 65 69 71 71 75 80 80 77 73 71 71 71
97 93 89 86 84 85 84 84 83 83 83 86 85 82 81 82 87 86 87 84 80 78 79 79 78 75 72 70 69 72 71 69 65 64 69 71 74 81 78 78 73 73 72
98 91 91 86 84 84 84 84 85 84 85 87 80 79 79 81 84 85 85 84 81 80 79 79 76 75 74 71 69 67 67 67 67 66 65 65 70 76 77 77 77 75 75
96 90 91 85 83 84 82 82 81 81 84 81 78 76 76 79 81 82 83 81 80 79 78 78 78 76 75 73 72 70 69 68 67 67 66 67 69 75 76 77 77 76 74
MSLP
1012.81 1013.27 1013.65 1013.94 1014.19 1014.39 1014.63 1014.83 1015.03 1015.25 1015.54 1015.74 1015.95 1016.14 1016.30 1016.48 1016.53 1016.58 1016.66 1016.76 1016.79 1016.79 1016.70 1016.63 1016.74 1016.91 1017.03 1017.13 1017.30 1017.49 1017.37 1017.42 1017.43 1017.42 1017.83 1018.17 1018.46 1018.69 1018.64 1018.88 1019.11 1019.04 1019.48
1012.34 1013.17 1013.69 1014.04 1014.31 1014.55 1014.72 1014.96 1015.22 1015.47 1015.71 1015.96 1016.07 1016.25 1016.46 1016.64 1016.71 1016.79 1016.84 1016.89 1016.88 1016.84 1016.65 1016.60 1016.79 1016.95 1016.95 1017.12 1017.31 1017.25 1017.44 1017.37 1017.30 1017.31 1017.54 1018.12 1018.64 1018.76 1019.16 1019.14 1019.48 1019.74 1019.71
1012.09 1013.24 1013.76 1014.10 1014.40 1014.70 1014.94 1015.14 1015.40 1015.65 1015.81 1016.13 1016.24 1016.53 1016.65 1016.83 1017.00 1017.04 1017.03 1017.02 1017.04 1016.79 1016.68 1016.68 1016.87 1017.10 1017.27 1017.49 1017.61 1017.41 1017.43 1017.27 1017.46 1017.71 1017.81 1017.58 1018.42 1018.79 1019.18 1019.67 1019.55 1020.00 1020.25
1011.98 1013.03 1013.83 1014.26 1014.54 1014.78 1015.02 1015.21 1015.47 1015.71 1015.98 1016.27 1016.48 1016.67 1016.93 1017.09 1017.19 1017.19 1017.05 1017.01 1016.97 1016.89 1016.89 1016.97 1017.30 1017.60 1017.66 1017.77 1017.81 1017.53 1017.47 1017.54 1017.68 1018.17 1017.87 1018.71 1017.76 1018.64 1018.99 1019.69 1019.59 1020.13 1020.69
1012.09 1012.95 1013.93 1014.32 1014.63 1014.89 1015.16 1015.31 1015.58 1015.88 1016.18 1016.35 1016.59 1016.82 1017.06 1017.20 1017.25 1017.17 1017.09 1017.13 1017.18 1017.21 1017.19 1017.27 1017.52 1017.71 1017.74 1017.72 1017.89 1017.69 1017.59 1018.04 1017.73 1018.76 1018.43 1018.20 1017.97 1018.62 1018.68 1019.23 1019.85 1020.19 1020.24
1012.07 1012.80 1013.92 1014.36 1014.75 1015.02 1015.25 1015.46 1015.76 1016.07 1016.35 1016.54 1016.70 1016.90 1017.14 1017.25 1017.17 1017.15 1017.21 1017.31 1017.42 1017.50 1017.47 1017.40 1017.50 1017.69 1017.70 1017.89 1018.07 1017.99 1017.67 1017.71 1017.49 1018.84 1019.28 1018.99 1018.11 1018.80 1018.85 1018.76 1019.31 1019.79 1020.02
1012.11 1012.95 1013.82 1014.48 1014.84 1015.12 1015.34 1015.61 1015.91 1016.15 1016.40 1016.58 1016.80 1016.98 1017.11 1017.26 1017.19 1017.22 1017.38 1017.50 1017.61 1017.63 1017.55 1017.48 1017.58 1017.76 1017.93 1018.12 1018.17 1017.96 1017.86 1017.99 1017.94 1018.51 1018.89 1018.59 1018.37 1018.84 1018.90 1018.79 1019.21 1019.72 1020.13
1011.65 1012.78 1013.88 1014.71 1015.01 1015.30 1015.51 1015.81 1016.04 1016.27 1016.47 1016.67 1016.80 1017.04 1017.21 1017.21 1017.18 1017.28 1017.48 1017.68 1017.75 1017.65 1017.50 1017.42 1017.43 1017.44 1017.67 1017.95 1017.95 1017.94 1017.97 1017.82 1017.05 1017.98 1018.64 1018.23 1018.50 1018.86 1018.88 1019.26 1019.50 1019.77 1020.14
1011.05 1012.50 1013.79 1014.57 1015.06 1015.43 1015.69 1015.92 1016.15 1016.32 1016.53 1016.70 1016.97 1017.15 1017.27 1017.24 1017.24 1017.39 1017.67 1017.87 1017.87 1017.67 1017.43 1017.23 1017.20 1017.47 1017.89 1017.96 1017.96 1017.81 1017.96 1017.89 1018.03 1018.32 1017.91 1017.75 1018.44 1018.54 1018.66 1019.22 1019.63 1019.74 1020.02
1010.68 1011.86 1012.99 1014.23 1014.83 1015.20 1015.64 1015.99 1016.23 1016.41 1016.58 1016.85 1017.05 1017.24 1017.25 1017.20 1017.22 1017.35 1017.73 1017.85 1017.75 1017.50 1017.14 1017.10 1017.26 1017.34 1017.54 1017.97 1017.94 1017.77 1018.02 1018.67 1016.74 1018.49 1018.05 1017.97 1018.28 1018.08 1018.54 1019.00 1019.42 1019.65 1019.90
1010.56 1011.32 1012.35 1013.51 1014.24 1014.70 1015.20 1016.04 1016.38 1016.54 1016.73 1016.92 1017.07 1017.18 1017.15 1016.83 1016.96 1017.15 1017.33 1017.63 1017.50 1017.18 1016.79 1016.82 1016.98 1017.01 1017.26 1017.42 1017.59 1018.33 1018.42 1018.05 1017.24 1017.47 1017.69 1018.09 1018.06 1017.96 1018.22 1018.64 1019.09 1019.55 1019.87
1010.01 1010.66 1011.74 1012.54 1013.50 1014.10 1014.34 1015.77 1016.03 1016.33 1016.50 1016.68 1016.73 1016.84 1016.69 1016.15 1016.10 1016.39 1016.88 1017.17 1017.00 1016.63 1016.44 1016.51 1016.73 1016.82 1017.12 1017.37 1017.11 1018.13 1018.54 1018.85 1016.79 1018.53 1017.23 1018.29 1017.78 1017.82 1018.16 1018.30 1018.69 1019.30 1019.75
1009.88 1010.29 1010.86 1012.06 1012.85 1013.09 1013.94 1014.83 1015.06 1015.46 1015.76 1016.05 1016.17 1016.34 1016.24 1015.96 1015.58 1015.81 1016.43 1016.71 1016.66 1016.25 1015.93 1015.81 1016.35 1016.59 1016.45 1017.19 1019.16 1019.41 1019.75 1019.44 1018.20 1019.56 1018.54 1018.43 1017.70 1017.59 1017.95 1018.09 1018.38 1019.00 1019.48
1009.98 1010.33 1010.52 1011.49 1012.20 1012.58 1013.38 1013.87 1014.04 1014.41 1015.04 1015.44 1015.89 1016.07 1015.90 1015.40 1015.47 1015.43 1015.85 1015.85 1015.96 1015.62 1015.07 1015.18 1015.41 1015.68 1015.85 1017.33 1019.77 1018.73 1019.59 1019.09 1018.82 1019.07 1019.93 1019.00 1017.63 1017.12 1017.68 1017.86 1017.78 1018.35 1018.99
1009.83 1010.31 1010.73 1011.24 1011.92 1012.41 1013.05 1013.23 1013.55 1013.87 1014.42 1014.66 1015.48 1016.00 1015.76 1015.51 1015.43 1015.42 1015.73 1015.77 1015.71 1015.25 1014.81 1014.72 1014.97 1015.61 1015.80 1015.95 1017.04 1017.88 1018.81 1017.29 1017.91 1019.32 1017.20 1017.08 1017.14 1017.54 1017.76 1017.80 1017.64 1017.98 1018.50
1009.56 1010.22 1010.77 1011.50 1012.15 1012.60 1012.92 1013.29 1013.59 1013.79 1013.94 1014.31 1014.87 1015.51 1015.65 1015.41 1015.27 1015.26 1015.69 1015.99 1015.88 1015.41 1015.11 1015.06 1015.29 1015.59 1015.56 1015.98 1016.40 1016.30 1017.84 1017.05 1017.71 1017.71 1015.74 1016.02 1016.23 1017.03 1017.08 1017.58 1017.57 1017.72 1018.13
1009.22 1010.00 1010.62 1011.61 1012.53 1013.03 1013.24 1013.54 1013.68 1013.69 1013.96 1014.35 1014.50 1015.16 1015.53 1015.43 1015.28 1015.34 1015.44 1015.65 1015.48 1015.38 1015.56 1015.38 1015.23 1014.95 1015.39 1015.63 1015.69 1015.24 1015.94 1015.96 1016.47 1016.13 1016.04 1016.24 1016.64 1018.22 1018.30 1017.97 1017.51 1017.92 1018.16
1008.91 1009.77 1010.56 1011.34 1012.39 1013.18 1013.51 1013.77 1013.76 1013.90 1013.82 1014.12 1014.23 1014.81 1015.11 1015.20 1015.22 1015.41 1015.42 1015.26 1015.07 1015.27 1015.51 1015.57 1015.77 1015.59 1015.84 1015.82 1015.76 1016.07 1015.75 1015.97 1016.37 1015.74 1015.63 1016.26 1016.48 1017.36 1016.81 1017.75 1017.60 1018.18 1017.98
1008.79 1009.74 1010.53 1011.25 1012.02 1012.93 1013.48 1013.88 1014.05 1013.95 1013.72 1013.71 1013.92 1014.06 1014.59 1014.89 1014.97 1015.18 1014.92 1015.03 1014.94 1015.01 1015.23 1015.53 1016.19 1016.61 1016.74 1016.88 1016.53 1016.77 1016.48 1016.63 1016.70 1016.26 1015.58 1016.19 1016.25 1016.75 1017.54 1017.18 1016.54 1018.92 1018.26
1008.63 1009.58 1010.49 1011.16 1011.76 1012.60 1013.44 1013.84 1014.03 1013.81 1013.53 1013.12 1013.30 1013.48 1014.07 1014.46 1014.77 1015.08 1015.01 1014.62 1014.76 1015.16 1015.60 1016.03 1016.17 1016.46 1017.05 1017.80 1017.21 1017.16 1017.23 1017.32 1016.72 1016.66 1016.55 1016.00 1016.48 1017.01 1017.52 1018.18 1017.84 1017.93 1018.05
1008.28 1009.37 1010.33 1011.03 1011.54 1012.23 1012.93 1013.64 1013.65 1013.41 1013.44 1013.15 1012.86 1012.94 1013.58 1013.73 1014.31 1014.63 1014.79 1014.46 1014.44 1016.08 1016.96 1016.60 1016.54 1016.62 1017.17 1018.00 1017.61 1017.35 1017.16 1017.37 1016.90 1016.76 1017.37 1016.22 1016.39 1017.17 1017.80 1018.29 1017.96 1017.73 1018.03
1007.59 1008.80 1009.97 1010.69 1011.32 1011.91 1012.41 1012.99 1013.06 1013.01 1012.88 1012.76 1012.45 1012.58 1012.84 1013.38 1013.84 1014.29 1014.23 1014.37 1015.26 1015.81 1015.56 1017.30 1017.13 1016.99 1017.50 1018.23 1018.27 1018.04 1018.01 1017.88 1018.00 1017.35 1017.72 1017.59 1017.36 1017.29 1018.39 1019.08 1018.98 1019.15 1019.23
1006.40 1007.62 1008.80 1009.84 1010.58 1011.22 1011.82 1012.36 1012.53 1012.49 1012.41 1012.49 1012.27 1012.47 1012.59 1012.81 1013.29 1013.74 1013.81 1014.98 1015.39 1016.99 1016.79 1017.00 1016.95 1017.19 1017.61 1018.30 1018.59 1018.51 1018.73 1018.63 1018.65 1018.43 1017.95 1018.43 1018.19 1018.04 1018.54 1019.49 1019.57 1019.72 1019.91
1004.84 1006.82 1008.64 1009.37 1009.71 1010.57 1011.35 1011.74 1011.98 1012.10 1012.17 1012.18 1012.28 1012.57 1012.76 1013.37 1012.87 1013.29 1013.41 1014.26 1015.68 1015.69 1015.80 1016.37 1016.97 1017.44 1017.90 1018.27 1018.63 1018.57 1018.40 1018.55 1019.00 1019.16 1018.74 1018.76 1018.68 1018.34 1018.61 1018.72 1019.58 1019.90 1020.16
1003.71 1006.13 1007.63 1009.29 1009.44 1010.12 1010.79 1011.07 1011.51 1011.73 1012.01 1012.17 1012.71 1013.04 1013.45 1013.50 1013.27 1013.49 1013.76 1014.08 1014.66 1015.46 1016.23 1016.68 1017.20 1017.61 1017.80 1017.94 1018.09 1018.48 1018.42 1017.87 1018.02 1019.39 1019.41 1019.53 1019.32 1018.40 1018.36 1018.48 1018.88 1019.37 1019.87
1004.33 1005.09 1006.70 1008.16 1008.62 1009.07 1010.13 1010.30 1010.92 1011.27 1011.84 1012.46 1013.06 1013.46 1013.85 1013.90 1013.90 1014.06 1014.39 1014.74 1015.22 1015.87 1016.25 1016.73 1017.04 1017.39 1017.60 1017.70 1017.78 1017.76 1017.78 1017.43 1017.93 1018.54 1018.85 1019.08 1018.81 1018.45 1018.39 1018.44 1018.60 1018.89 1019.44
Wind_Speed
14 13 12 13 12 12 13 13 12 12 11 11 10 10 10 9 9 8 8 8 8 7 6 7 7 7 7 7 9 10 8 8 8 9 9 9 10 9 10 11 9 15 15
18 14 12 12 13 12 12 13 12 11 11 10 11 10 9 9 8 8 8 7 8 8 7 6 7 7 7 8 9 8 8 7 7 10 13 10 10 10 13 23 7 10 14
19 14 13 12 12 13 13 12 12 12 12 10 9 9 9 9 8 7 8 7 7 9 8 8 8 8 8 8 8 5 4 3 5 5 12 11 10 12 15 25 20 13 13
19 13 13 12 12 13 13 13 12 12 10 9 9 9 9 8 8 8 7 8 8 8 9 8 8 7 7 6 6 2 2 1 6 13 6 11 12 11 13 16 12 14 13
18 13 15 14 13 12 12 11 11 11 10 9 9 9 9 8 8 11 8 8 8 8 7 7 7 8 6 5 5 1 5 1 6 12 5 6 6 11 13 16 14 13 12
20 16 16 14 13 13 11 11 11 11 10 10 10 10 9 9 8 10 8 8 8 7 6 4 5 5 4 3 2 3 6 5 8 9 1 6 4 13 14 13 13 14 11
19 18 15 13 12 13 12 13 12 11 11 11 11 10 10 11 9 9 8 8 7 6 3 2 2 1 1 2 3 6 8 8 9 3 15 7 12 13 13 14 13 13 13
20 17 15 12 12 12 12 12 12 11 11 10 10 11 10 9 9 8 9 7 6 4 2 2 2 3 4 4 6 8 10 8 8 7 12 8 16 16 16 15 15 15 13
22 18 14 12 12 12 12 12 11 10 10 9 11 10 9 8 10 8 7 7 6 4 3 4 6 6 6 7 8 10 11 10 0 5 2 8 17 17 17 16 14 14 12
19 18 16 13 12 10 10 11 11 10 10 9 11 9 8 8 8 8 8 7 6 5 6 8 8 9 9 8 10 12 11 10 14 1 5 7 19 19 17 15 14 13 13
15 16 18 15 13 11 11 9 8 9 10 8 9 9 8 7 9 11 8 11 8 8 11 12 12 12 11 8 7 15 16 7 8 9 3 18 19 18 17 15 13 12 11
12 17 15 17 14 13 12 12 9 9 8 7 8 8 8 9 7 10 11 13 12 13 13 14 15 16 11 2 6 14 5 14 10 4 7 19 19 18 16 16 14 13 12
11 10 16 17 15 15 13 9 7 7 7 7 7 8 9 5 6 6 6 6 6 12 7 10 9 8 8 12 9 8 5 10 6 11 2 16 17 17 17 16 15 13 13
11 12 11 22 12 10 10 8 9 8 7 7 6 6 4 2 1 2 1 5 6 4 3 4 3 3 3 14 16 17 10 10 9 7 7 11 12 17 16 16 17 16 14
13 11 9 11 7 3 9 5 3 4 7 7 8 5 3 4 4 2 3 3 2 3 5 3 2 2 1 2 9 15 15 9 14 8 1 16 13 13 15 17 17 17 16
13 11 12 11 5 2 3 4 1 4 4 5 8 9 6 4 3 2 2 3 4 2 3 5 4 4 5 4 2 8 6 5 10 12 5 4 16 19 20 17 17 17 17
12 14 11 11 9 5 4 2 3 3 8 3 3 11 6 4 3 3 3 6 6 2 3 4 6 4 3 5 4 4 5 9 5 13 10 6 9 10 9 15 17 15 15
12 11 11 12 14 9 6 4 3 5 3 6 4 9 9 7 6 5 5 4 2 3 2 4 5 5 4 6 6 4 3 2 4 7 3 4 6 9 16 18 12 14 15
10 11 9 9 15 12 9 7 6 8 6 6 7 8 9 8 7 5 5 3 3 1 2 2 2 5 5 6 3 3 4 6 9 13 5 1 5 7 6 13 2 16 13
11 11 8 9 8 13 8 6 7 6 6 5 5 6 12 8 6 6 5 3 4 2 4 5 5 4 6 6 7 6 2 6 3 9 11 4 8 10 10 8 4 7 6
14 13 10 11 7 10 9 7 7 7 7 6 7 7 11 8 10 6 5 4 3 9 9 7 4 5 5 6 4 5 3 7 7 5 13 4 8 9 11 10 6 5 6
17 16 13 10 9 10 7 8 7 8 8 7 7 7 6 6 6 8 8 5 8 8 2 5 1 2 2 3 1 1 3 1 4 5 9 10 8 7 11 9 10 9 7
19 20 18 15 13 11 11 8 7 4 4 4 4 7 8 8 7 5 6 7 5 9 9 7 4 2 0 2 2 3 2 2 2 2 3 5 6 4 9 9 9 8 8
19 20 18 17 15 13 11 9 7 6 5 4 2 5 5 3 4 6 2 4 8 5 7 5 3 4 3 3 1 1 2 4 2 3 3 4 7 1 4 7 8 7 7
19 16 13 18 16 14 13 9 9 8 6 1 5 7 7 3 4 2 3 3 5 3 4 5 6 8 5 3 3 2 3 3 3 6 4 1 7 2 4 3 7 7 8
14 19 20 20 17 18 15 14 9 11 6 5 5 5 4 4 3 4 2 3 3 2 5 4 4 4 4 4 4 4 3 2 2 6 5 3 4 4 4 3 4 5 5
Wind_Direction
127 128 130 125 117 104 119 133 126 112 123 115 115 109 106 100 89 89 88 89 90 99 107 102 102 103 96 94 93 87 95 99 110 118 119 125 121 120 122 116 120 113 122
128 129 126 121 117 112 115 127 121 121 114 112 113 115 119 111 105 97 93 96 108 108 110 105 102 103 104 96 88 87 96 114 136 140 134 128 120 122 112 90 21 127 131
124 127 127 120 124 122 122 126 131 126 118 120 120 120 111 104 102 106 105 103 104 108 110 108 112 99 95 88 87 90 111 137 109 148 174 143 114 124 127 135 186 139 129
123 137 129 125 125 132 135 134 137 132 129 135 135 117 116 121 119 136 120 126 120 108 97 97 93 99 95 98 93 88 229 163 104 67 338 338 126 128 133 144 146 128 139
128 144 127 133 137 137 133 135 132 139 145 143 126 130 132 129 136 119 134 124 119 112 104 103 101 103 111 114 111 199 269 32 159 81 202 244 137 131 136 141 137 139 147
126 121 131 137 140 137 136 133 130 130 132 131 133 135 138 140 150 129 129 130 124 120 109 112 114 115 131 154 165 248 285 289 285 180 239 325 154 140 140 144 134 131 124
126 125 131 137 144 136 145 137 141 141 138 143 137 144 150 141 146 140 140 128 120 121 128 140 137 134 178 229 252 257 265 272 277 88 153 229 122 146 142 128 126 131 139
129 127 133 136 136 146 143 141 142 143 145 140 144 149 143 148 148 140 136 133 130 135 158 202 231 236 238 245 261 268 273 279 284 23 185 152 145 156 139 136 139 143 144
130 128 128 143 148 151 149 145 148 150 148 154 151 145 153 158 154 150 149 145 146 162 208 238 249 256 257 256 255 256 264 277 298 357 200 131 161 152 145 149 150 148 149
133 138 145 141 158 161 154 155 152 149 148 151 142 156 165 156 165 171 168 168 170 193 226 240 248 255 256 265 270 269 270 256 254 273 204 171 172 149 153 154 156 159 162
148 143 141 155 165 164 144 153 152 158 150 148 152 170 178 192 189 170 171 157 189 215 232 237 239 244 245 254 312 316 288 263 262 171 229 161 163 153 157 161 163 165 172
174 150 151 149 166 177 153 147 170 169 172 184 181 183 221 218 174 189 162 175 198 220 235 243 243 242 240 163 45 347 1 333 7 334 154 181 159 157 164 166 171 178 184
191 158 173 149 163 193 132 171 174 169 173 183 177 194 220 222 172 171 160 187 208 225 238 219 235 239 242 72 68 335 53 293 346 348 111 183 161 162 172 170 174 182 190
184 166 179 154 162 183 152 174 183 174 165 154 180 200 255 279 157 244 174 174 204 169 255 235 312 345 335 96 143 208 193 204 82 280 280 280 180 169 181 181 178 184 192
170 169 192 123 142 113 147 148 196 141 157 158 145 194 258 253 179 108 315 314 274 242 246 257 305 357 321 149 163 175 187 177 149 172 31 256 197 196 191 191 186 188 191
166 174 175 126 118 160 122 116 156 149 133 150 158 166 229 235 168 200 176 277 265 245 356 0 331 314 279 87 115 268 88 230 126 211 219 212 197 206 192 198 196 193 192
162 173 161 141 157 205 150 133 203 255 150 181 177 145 184 236 169 260 216 222 232 170 96 257 274 265 349 113 193 127 158 3 275 179 207 205 206 212 235 213 196 197 198
162 161 162 173 164 194 167 176 208 257 223 178 191 157 177 197 227 200 254 281 357 67 266 262 331 51 25 20 333 30 41 350 317 295 41 124 184 162 211 217 202 208 195
160 145 156 171 162 173 162 174 228 225 233 189 197 174 173 197 201 221 249 158 105 254 279 33 175 26 36 9 352 39 15 8 352 328 80 38 331 50 34 164 47 260 203
153 146 162 160 166 157 160 195 209 224 226 216 183 208 175 194 198 169 264 235 138 253 51 23 41 47 58 15 343 30 47 29 346 4 319 53 64 40 54 41 202 244 203
160 155 168 167 175 157 159 194 203 220 203 234 195 203 182 185 178 170 236 222 149 47 24 358 357 72 56 10 344 2 33 45 26 39 302 23 71 73 54 28 28 38 120
163 159 165 178 169 170 173 185 211 216 196 215 220 176 171 169 182 191 205 165 106 106 37 252 30 38 90 47 35 253 6 61 20 11 346 348 4 97 87 67 43 47 69
169 167 169 180 178 180 181 185 217 238 233 207 225 171 180 185 185 248 161 56 121 155 183 191 182 146 198 133 196 152 175 67 341 16 358 314 349 21 114 113 100 88 84
184 170 167 178 177 181 200 189 199 207 219 221 186 85 83 329 139 137 332 123 160 151 155 157 127 127 153 188 170 216 106 130 132 327 4 351 317 118 83 123 125 129 122
187 148 184 181 174 181 197 216 195 201 217 62 93 99 110 116 81 108 140 127 109 137 153 168 175 188 194 182 164 187 235 183 129 231 274 297 280 33 50 80 139 140 140
180 165 176 179 179 177 186 207 211 192 208 129 135 138 155 149 145 130 130 118 125 215 154 212 222 216 216 182 172 180 212 104 161 231 241 191 207 185 140 115 87 124 122